Location: Newark
(53.3333°N, 83.7500°E)
Time: 21:58:29
(UTC+00:00)

SR - Pass Details

Date: 21 November 2019
Orbit: 573 x 882 km, 66.7° (Epoch: 12 December)

Event Time Altitude Azimuth Distance (km) Brightness Sun altitude
Rises 15:45:49 0° 318° (NW) 3,470 ? -46.6°
Reaches altitude 10° 15:48:23 10° 323° (NW) 2,544 ? -46.9°
Enters shadow 15:48:40 11° 324° (NW) 2,442 ? -46.9°
